,,Stat6,,Stat2,,Stat8,,Stat9,,Stat10,,Wind1,,Wind1,
time,status,PA1M_AVG,status,PR1M_SUM,status,RH1M_AVG,status,SR1M_AVG,status,TA1M_AVG,status,W1dAve1m,status,W1sAve1m,
2009-07-31, 00:00:00,VALID,919.195,VALID,0,VALID,100,VALID,-0.0509425,VALID,17.9454,VALID,135,VALID,0,
2009-07-31, 00:01:00,VALID,919.163,VALID,0,VALID,100,VALID,-0.0169808,VALID,17.985,VALID,135,VALID,0,
2009-07-31, 00:02:00,VALID,919.162,VALID,0,VALID,100,VALID,-0.0339617,VALID,17.9683,VALID,135,VALID,0,
2009-07-31, 00:03:00,VALID,919.158,VALID,0,VALID,100,VALID,-0.0679233,VALID,18.0269,VALID,135,VALID,0,
2009-07-31, 00:04:00,VALID,919.157,VALID,0,VALID,100,VALID,-0.0849042,VALID,18.1179,VALID,135,VALID,0,
2009-07-31, 00:05:00,VALID,919.159,VALID,0,VALID,100,VALID,-0.0679233,VALID,18.082,VALID,135,VALID,0,
2009-07-31, 00:06:00,VALID,919.158,VALID,0,VALID,100,VALID,-0.0849042,VALID,18.0857,VALID,135,VALID,0,
2009-07-31, 00:07:00,VALID,919.132,VALID,0,VALID,100,VALID,-0.0849042,VALID,18.215,VALID,118,VALID,0,
2009-07-31, 00:08:00,VALID,919.114,VALID,0,VALID,100,VALID,-0.0849042,VALID,18.2574,VALID,114,VALID,0,
2009-07-31, 00:09:00,VALID,919.109,VALID,0,VALID,100,VALID,-0.101885,VALID,18.2669,VALID,114,VALID,0,
2009-07-31, 00:10:00,VALID,919.11,VALID,0,VALID,100,VALID,-0.0849042,VALID,18.2509,VALID,119,VALID,0,
2009-07-31, 00:11:00,VALID,919.097,VALID,0,VALID,100,VALID,-0.0849042,VALID,18.2118,VALID,134,VALID,0,
2009-07-31, 00:12:00,VALID,919.082,VALID,0,VALID,100,VALID,-0.101885,VALID,18.1858,VALID,139,VALID,0,
2009-07-31, 00:13:00,VALID,919.049,VALID,0,VALID,100,VALID,-0.0679233,VALID,18.1566,VALID,138,VALID,0,
2009-07-31, 00:14:00,VALID,919.037,VALID,0,VALID,100,VALID,-0.101885,VALID,18.1731,VALID,127,VALID,0,
2009-07-31, 00:15:00,VALID,919.017,VALID,0,VALID,100,VALID,-0.0849042,VALID,18.1858,VALID,109,VALID,0,
2009-07-31, 00:16:00,VALID,919.016,VALID,0,VALID,100,VALID,-0.101885,VALID,18.1471,VALID,103,VALID,0,
2009-07-31, 00:17:00,VALID,919.005,VALID,0,VALID,100,VALID,-0.101885,VALID,18.1274,VALID,104,VALID,0,
2009-07-31, 00:18:00,VALID,918.984,VALID,0,VALID,100,VALID,-0.0849042,VALID,18.1631,VALID,104,VALID,0,
2009-07-31, 00:19:00,VALID,918.973,VALID,0,VALID,100,VALID,-0.0849042,VALID,18.1701,VALID,104,VALID,0,
2009-07-31, 00:20:00,VALID,918.956,VALID,0,VALID,100,VALID,-0.0679233,VALID,18.1052,VALID,104,VALID,0,
2009-07-31, 00:21:00,VALID,918.968,VALID,0,VALID,100,VALID,-0.0849042,VALID,18.0885,VALID,103,VALID,0,
2009-07-31, 00:22:00,VALID,918.974,VALID,0,VALID,100,VALID,-0.101885,VALID,18.0656,VALID,103,VALID,0,
2009-07-31, 00:23:00,VALID,918.989,VALID,0,VALID,100,VALID,-0.101885,VALID,18.0658,VALID,103,VALID,0,
2009-07-31, 00:24:00,VALID,918.989,VALID,0,VALID,100,VALID,-0.0509425,VALID,18.0267,VALID,103,VALID,0,
2009-07-31, 00:25:00,VALID,918.997,VALID,0,VALID,100,VALID,-0.0679233,VALID,18.0396,VALID,103,VALID,0,
2009-07-31, 00:26:00,VALID,918.992,VALID,0,VALID,100,VALID,-0.118866,VALID,17.9653,VALID,103,VALID,0,
2009-07-31, 00:27:00,VALID,918.992,VALID,0,VALID,100,VALID,-0.0849042,VALID,17.9979,VALID,103,VALID,0,
2009-07-31, 00:28:00,VALID,918.98,VALID,0,VALID,100,VALID,-0.0509425,VALID,17.9787,VALID,103,VALID,0,
2009-07-31, 00:29:00,VALID,918.977,VALID,0,VALID,100,VALID,-0.101885,VALID,17.9201,VALID,103,VALID,0,
2009-07-31, 00:30:00,VALID,918.993,VALID,0,VALID,100,VALID,-0.0679233,VALID,17.9009,VALID,104,VALID,0,
2009-07-31, 00:31:00,VALID,918.985,VALID,0,VALID,100,VALID,-0.0509425,VALID,17.9882,VALID,103,VALID,0,
2009-07-31, 00:32:00,VALID,918.973,VALID,0,VALID,100,VALID,-0.0679233,VALID,18.092,VALID,103,VALID,0,
2009-07-31, 00:33:00,VALID,918.962,VALID,0,VALID,100,VALID,-0.0849042,VALID,17.8228,VALID,104,VALID,0,
2009-07-31, 00:34:00,VALID,918.959,VALID,0,VALID,100,VALID,-0.0679233,VALID,17.5858,VALID,104,VALID,0,
2009-07-31, 00:35:00,VALID,918.971,VALID,0,VALID,100,VALID,-0.0849042,VALID,17.5761,VALID,104,VALID,0,
2009-07-31, 00:36:00,VALID,918.956,VALID,0,VALID,100,VALID,-0.0679233,VALID,17.5694,VALID,104,VALID,0,
2009-07-31, 00:37:00,VALID,918.938,VALID,0,VALID,100,VALID,-0.0339617,VALID,17.5463,VALID,104,VALID,0,
2009-07-31, 00:38:00,VALID,918.909,VALID,0,VALID,100,VALID,-0.0509425,VALID,17.5631,VALID,104,VALID,0,
2009-07-31, 00:39:00,VALID,918.906,VALID,0,VALID,100,VALID,-0.0339617,VALID,17.5404,VALID,104,VALID,0,
2009-07-31, 00:40:00,VALID,918.898,VALID,0,VALID,100,VALID,-0.0679233,VALID,17.5115,VALID,104,VALID,0,
2009-07-31, 00:41:00,VALID,918.904,VALID,0,VALID,100,VALID,-0.0679233,VALID,17.4981,VALID,104,VALID,0,
2009-07-31, 00:42:00,VALID,918.912,VALID,0,VALID,100,VALID,-0.0849042,VALID,17.534,VALID,104,VALID,0,
2009-07-31, 00:43:00,VALID,918.909,VALID,0,VALID,100,VALID,-0.0509425,VALID,17.6565,VALID,104,VALID,0,
2009-07-31, 00:44:00,VALID,918.893,VALID,0,VALID,100,VALID,-0.0339617,VALID,17.7536,VALID,104,VALID,0,
2009-07-31, 00:45:00,VALID,918.857,VALID,0,VALID,100,VALID,-0.0679233,VALID,17.8219,VALID,104,VALID,0,
2009-07-31, 00:46:00,VALID,918.831,VALID,0,VALID,100,VALID,-0.0339617,VALID,17.7804,VALID,104,VALID,0,
2009-07-31, 00:47:00,VALID,918.808,VALID,0,VALID,100,VALID,-0.0849042,VALID,17.5919,VALID,104,VALID,0,
2009-07-31, 00:48:00,VALID,918.804,VALID,0,VALID,100,VALID,-0.0849042,VALID,17.641,VALID,104,VALID,0,
2009-07-31, 00:49:00,VALID,918.782,VALID,0,VALID,100,VALID,-0.101885,VALID,17.7644,VALID,104,VALID,0,
2009-07-31, 00:50:00,VALID,918.773,VALID,0,VALID,100,VALID,-0.0849042,VALID,17.7742,VALID,104,VALID,0,
2009-07-31, 00:51:00,VALID,918.777,VALID,0,VALID,100,VALID,-0.0679233,VALID,17.7415,VALID,104,VALID,0,
2009-07-31, 00:52:00,VALID,918.759,VALID,0,VALID,100,VALID,-0.0849042,VALID,17.6959,VALID,104,VALID,0,
2009-07-31, 00:53:00,VALID,918.748,VALID,0,VALID,100,VALID,-0.0509425,VALID,17.631,VALID,104,VALID,0,
2009-07-31, 00:54:00,VALID,918.727,VALID,0,VALID,100,VALID,-0.0679233,VALID,17.6248,VALID,104,VALID,0,
2009-07-31, 00:55:00,VALID,918.723,VALID,0,VALID,100,VALID,-0.101885,VALID,17.5988,VALID,104,VALID,0,
2009-07-31, 00:56:00,VALID,918.717,VALID,0,VALID,100,VALID,-0.0339617,VALID,17.5956,VALID,104,VALID,0,
2009-07-31, 00:57:00,VALID,918.703,VALID,0,VALID,100,VALID,-0.0849042,VALID,17.6021,VALID,104,VALID,0,
2009-07-31, 00:58:00,VALID,918.706,VALID,0,VALID,100,VALID,-0.0679233,VALID,17.5858,VALID,104,VALID,0,
2009-07-31, 00:59:00,VALID,918.724,VALID,0,VALID,100,VALID,-0.0849042,VALID,17.6046,VALID,104,VALID,0,
2009-07-31, 01:00:00,VALID,918.723,VALID,0,VALID,100,VALID,-0.0849042,VALID,17.6113,VALID,104,VALID,0,
2009-07-31, 01:01:00,VALID,918.737,VALID,0,VALID,100,VALID,-0.0339617,VALID,17.644,VALID,104,VALID,0,
2009-07-31, 01:02:00,VALID,918.737,VALID,0,VALID,100,VALID,-0.0509425,VALID,17.6375,VALID,104,VALID,0,
2009-07-31, 01:03:00,VALID,918.728,VALID,0,VALID,100,VALID,-0.0849042,VALID,17.6183,VALID,104,VALID,0,
2009-07-31, 01:04:00,VALID,918.706,VALID,0,VALID,100,VALID,-0.0339617,VALID,17.5627,VALID,104,VALID,0,
2009-07-31, 01:05:00,VALID,918.683,VALID,0,VALID,100,VALID,-0.0509425,VALID,17.55,VALID,104,VALID,0,
2009-07-31, 01:06:00,VALID,918.661,VALID,0,VALID,100,VALID,-0.0339617,VALID,17.4879,VALID,104,VALID,0,
2009-07-31, 01:07:00,VALID,918.649,VALID,0,VALID,100,VALID,0.0169808,VALID,17.5491,VALID,102,VALID,0,
2009-07-31, 01:08:00,VALID,918.628,VALID,0,VALID,100,VALID,-0.0339617,VALID,17.6239,VALID,76,VALID,0,
2009-07-31, 01:09:00,VALID,918.598,VALID,0,VALID,100,VALID,-0.0339617,VALID,17.6245,VALID,73,VALID,0,
2009-07-31, 01:10:00,VALID,918.591,VALID,0,VALID,100,VALID,-0.0339617,VALID,17.5761,VALID,73,VALID,0,
2009-07-31, 01:11:00,VALID,918.573,VALID,0,VALID,100,VALID,-0.0339617,VALID,17.5141,VALID,73,VALID,0,
2009-07-31, 01:12:00,VALID,918.577,VALID,0,VALID,100,VALID,-0.0169808,VALID,17.4942,VALID,73,VALID,0,
2009-07-31, 01:13:00,VALID,918.568,VALID,0,VALID,100,VALID,-0.0339617,VALID,17.4615,VALID,73,VALID,0,
2009-07-31, 01:14:00,VALID,918.539,VALID,0,VALID,100,VALID,-0.0679233,VALID,17.4421,VALID,73,VALID,0,
2009-07-31, 01:15:00,VALID,918.51,VALID,0,VALID,100,VALID,-0.0169808,VALID,17.4418,VALID,73,VALID,0,
2009-07-31, 01:16:00,VALID,918.497,VALID,0,VALID,100,VALID,0,VALID,17.4581,VALID,73,VALID,0,
2009-07-31, 01:17:00,VALID,918.494,VALID,0,VALID,100,VALID,-0.0339617,VALID,17.4354,VALID,73,VALID,0,
2009-07-31, 01:18:00,VALID,918.501,VALID,0,VALID,100,VALID,0,VALID,17.5261,VALID,73,VALID,0,
2009-07-31, 01:19:00,VALID,918.51,VALID,0,VALID,100,VALID,-0.0339617,VALID,17.6107,VALID,73,VALID,0,
2009-07-31, 01:20:00,VALID,918.494,VALID,0,VALID,100,VALID,-0.0169808,VALID,17.6299,VALID,73,VALID,0,
2009-07-31, 01:21:00,VALID,918.503,VALID,0,VALID,100,VALID,-0.0169808,VALID,17.5651,VALID,73,VALID,0,
2009-07-31, 01:22:00,VALID,918.505,VALID,0,VALID,100,VALID,-0.0339617,VALID,17.5361,VALID,73,VALID,0,
2009-07-31, 01:23:00,VALID,918.503,VALID,0,VALID,100,VALID,-0.0169808,VALID,17.471,VALID,73,VALID,0,
2009-07-31, 01:24:00,VALID,918.511,VALID,0,VALID,100,VALID,0,VALID,17.5746,VALID,73,VALID,0,
2009-07-31, 01:25:00,VALID,918.521,VALID,0,VALID,100,VALID,0,VALID,17.6779,VALID,73,VALID,0,
2009-07-31, 01:26:00,VALID,918.518,VALID,0,VALID,100,VALID,-0.0169808,VALID,17.7883,VALID,79,VALID,0,
2009-07-31, 01:27:00,VALID,918.502,VALID,0,VALID,100,VALID,-0.0679233,VALID,17.8478,VALID,104,VALID,0,
2009-07-31, 01:28:00,VALID,918.483,VALID,0,VALID,100,VALID,-0.0849042,VALID,17.9064,VALID,104,VALID,0,
2009-07-31, 01:29:00,VALID,918.487,VALID,0,VALID,100,VALID,-0.118866,VALID,17.9101,VALID,106,VALID,0,
2009-07-31, 01:30:00,VALID,918.49,VALID,0,VALID,100,VALID,-0.101885,VALID,17.7964,VALID,110,VALID,0,
2009-07-31, 01:31:00,VALID,918.495,VALID,0,VALID,100,VALID,-0.118866,VALID,17.6702,VALID,131,VALID,0,
2009-07-31, 01:32:00,VALID,918.479,VALID,0,VALID,100,VALID,-0.0849042,VALID,17.6213,VALID,138,VALID,0,
2009-07-31, 01:33:00,VALID,918.484,VALID,0,VALID,100,VALID,-0.101885,VALID,17.6248,VALID,141,VALID,0,
2009-07-31, 01:34:00,VALID,918.477,VALID,0,VALID,100,VALID,-0.118866,VALID,17.6111,VALID,147,VALID,0,
2009-07-31, 01:35:00,VALID,918.469,VALID,0,VALID,100,VALID,-0.101885,VALID,17.6116,VALID,155,VALID,0,
2009-07-31, 01:36:00,VALID,918.445,VALID,0,VALID,100,VALID,-0.118866,VALID,17.5337,VALID,155,VALID,0,
2009-07-31, 01:37:00,VALID,918.432,VALID,0,VALID,100,VALID,-0.0849042,VALID,17.4724,VALID,153,VALID,0,
2009-07-31, 01:38:00,VALID,918.417,VALID,0,VALID,100,VALID,-0.118866,VALID,17.4043,VALID,143,VALID,0,
2009-07-31, 01:39:00,VALID,918.415,VALID,0,VALID,100,VALID,-0.118866,VALID,17.2551,VALID,143,VALID,0,
2009-07-31, 01:40:00,VALID,918.438,VALID,0,VALID,100,VALID,-0.101885,VALID,17.2158,VALID,143,VALID,0,
2009-07-31, 01:41:00,VALID,918.457,VALID,0,VALID,100,VALID,-0.118866,VALID,17.2,VALID,143,VALID,0,
2009-07-31, 01:42:00,VALID,918.479,VALID,0,VALID,100,VALID,-0.0679233,VALID,17.2054,VALID,143,VALID,0,
2009-07-31, 01:43:00,VALID,918.487,VALID,0,VALID,100,VALID,-0.0339617,VALID,17.176,VALID,143,VALID,0,
2009-07-31, 01:44:00,VALID,918.48,VALID,0,VALID,100,VALID,0,VALID,17.1468,VALID,143,VALID,0,
2009-07-31, 01:45:00,VALID,918.474,VALID,0,VALID,100,VALID,0,VALID,17.1563,VALID,143,VALID,0,
2009-07-31, 01:46:00,VALID,918.454,VALID,0,VALID,100,VALID,-0.0169808,VALID,17.2054,VALID,143,VALID,0,
2009-07-31, 01:47:00,VALID,918.445,VALID,0,VALID,100,VALID,-0.0169808,VALID,17.2568,VALID,143,VALID,0,
2009-07-31, 01:48:00,VALID,918.426,VALID,0,VALID,100,VALID,-0.0339617,VALID,17.2538,VALID,142,VALID,0,
2009-07-31, 01:49:00,VALID,918.404,VALID,0,VALID,100,VALID,-0.0169808,VALID,17.2471,VALID,125,VALID,0,
2009-07-31, 01:50:00,VALID,918.396,VALID,0,VALID,100,VALID,-0.0509425,VALID,17.2475,VALID,123,VALID,0,
2009-07-31, 01:51:00,VALID,918.394,VALID,0,VALID,100,VALID,-0.0509425,VALID,17.3026,VALID,126,VALID,0,
2009-07-31, 01:52:00,VALID,918.383,VALID,0,VALID,100,VALID,0,VALID,17.3091,VALID,137,VALID,0,
2009-07-31, 01:53:00,VALID,918.377,VALID,0,VALID,100,VALID,-0.0169808,VALID,17.2992,VALID,138,VALID,0,
2009-07-31, 01:54:00,VALID,918.369,VALID,0,VALID,100,VALID,-0.0339617,VALID,17.3348,VALID,138,VALID,0,
2009-07-31, 01:55:00,VALID,918.342,VALID,0,VALID,100,VALID,-0.0339617,VALID,17.348,VALID,134,VALID,0,
2009-07-31, 01:56:00,VALID,918.313,VALID,0,VALID,100,VALID,-0.0339617,VALID,17.3476,VALID,129,VALID,0,
2009-07-31, 01:57:00,VALID,918.297,VALID,0,VALID,100,VALID,0,VALID,17.3867,VALID,124,VALID,0,
2009-07-31, 01:58:00,VALID,918.294,VALID,0,VALID,100,VALID,0,VALID,17.4127,VALID,124,VALID,0,
2009-07-31, 01:59:00,VALID,918.307,VALID,0,VALID,100,VALID,-0.0339617,VALID,17.4254,VALID,128,VALID,0,
2009-07-31, 02:00:00,VALID,918.312,VALID,0,VALID,100,VALID,-0.0169808,VALID,17.4291,VALID,139,VALID,0,
2009-07-31, 02:01:00,VALID,918.309,VALID,0,VALID,100,VALID,-0.0339617,VALID,17.3768,VALID,142,VALID,0,
2009-07-31, 02:02:00,VALID,918.298,VALID,0,VALID,100,VALID,-0.0339617,VALID,17.3738,VALID,138,VALID,0,
2009-07-31, 02:03:00,VALID,918.297,VALID,0,VALID,100,VALID,0,VALID,17.3441,VALID,138,VALID,0,
2009-07-31, 02:04:00,VALID,918.286,VALID,0,VALID,100,VALID,0,VALID,17.3152,VALID,142,VALID,0,
2009-07-31, 02:05:00,VALID,918.271,VALID,0,VALID,100,VALID,-0.0169808,VALID,17.2665,VALID,143,VALID,0,
2009-07-31, 02:06:00,VALID,918.269,VALID,0,VALID,100,VALID,0,VALID,17.2473,VALID,132,VALID,0,
2009-07-31, 02:07:00,VALID,918.262,VALID,0,VALID,100,VALID,0,VALID,17.2214,VALID,147,VALID,0,
2009-07-31, 02:08:00,VALID,918.264,VALID,0,VALID,100,VALID,-0.0169808,VALID,17.2047,VALID,134,VALID,0,
2009-07-31, 02:09:00,VALID,918.253,VALID,0,VALID,100,VALID,0.0169808,VALID,17.2049,VALID,132,VALID,0,
2009-07-31, 02:10:00,VALID,918.245,VALID,0,VALID,100,VALID,-0.0509425,VALID,17.2047,VALID,139,VALID,0,
2009-07-31, 02:11:00,VALID,918.241,VALID,0,VALID,100,VALID,-0.0339617,VALID,17.176,VALID,139,VALID,0,
2009-07-31, 02:12:00,VALID,918.22,VALID,0,VALID,100,VALID,-0.0849042,VALID,17.1444,VALID,140,VALID,0,
2009-07-31, 02:13:00,VALID,918.19,VALID,0,VALID,100,VALID,-0.101885,VALID,17.0928,VALID,140,VALID,0,
2009-07-31, 02:14:00,VALID,918.165,VALID,0,VALID,100,VALID,-0.0849042,VALID,17.0954,VALID,130,VALID,0,
2009-07-31, 02:15:00,VALID,918.139,VALID,0,VALID,100,VALID,-0.0339617,VALID,17.1116,VALID,130,VALID,0,
2009-07-31, 02:16:00,VALID,918.136,VALID,0,VALID,100,VALID,-0.0679233,VALID,17.096,VALID,130,VALID,0,
2009-07-31, 02:17:00,VALID,918.122,VALID,0,VALID,100,VALID,-0.0509425,VALID,17.0757,VALID,130,VALID,0,
2009-07-31, 02:18:00,VALID,918.118,VALID,0,VALID,100,VALID,-0.0509425,VALID,17.1144,VALID,128,VALID,0,
2009-07-31, 02:19:00,VALID,918.103,VALID,0,VALID,100,VALID,-0.0509425,VALID,17.1634,VALID,127,VALID,0,
2009-07-31, 02:20:00,VALID,918.096,VALID,0,VALID,100,VALID,-0.0849042,VALID,17.1928,VALID,127,VALID,0,
2009-07-31, 02:21:00,VALID,918.078,VALID,0,VALID,100,VALID,-0.0679233,VALID,17.1896,VALID,126,VALID,0,
2009-07-31, 02:22:00,VALID,918.058,VALID,0,VALID,100,VALID,-0.0509425,VALID,17.2084,VALID,125,VALID,0,
2009-07-31, 02:23:00,VALID,918.036,VALID,0,VALID,100,VALID,-0.0849042,VALID,17.1831,VALID,125,VALID,0,
2009-07-31, 02:24:00,VALID,918.038,VALID,0,VALID,100,VALID,-0.0849042,VALID,17.1768,VALID,129,VALID,0,
2009-07-31, 02:25:00,VALID,918.052,VALID,0,VALID,100,VALID,-0.101885,VALID,17.1836,VALID,144,VALID,0,
2009-07-31, 02:26:00,VALID,918.022,VALID,0,VALID,100,VALID,-0.101885,VALID,17.1542,VALID,145,VALID,0,
2009-07-31, 02:27:00,VALID,918.023,VALID,0,VALID,100,VALID,0,VALID,17.1306,VALID,145,VALID,0,
2009-07-31, 02:28:00,VALID,918.016,VALID,0,VALID,100,VALID,0,VALID,17.136,VALID,145,VALID,0,
2009-07-31, 02:29:00,VALID,918.017,VALID,0,VALID,100,VALID,0.0339617,VALID,17.1561,VALID,145,VALID,0,
2009-07-31, 02:30:00,VALID,917.994,VALID,0,VALID,100,VALID,0.0339617,VALID,17.1721,VALID,145,VALID,0,
2009-07-31, 02:31:00,VALID,917.974,VALID,0,VALID,100,VALID,0,VALID,17.1887,VALID,138,VALID,0,
2009-07-31, 02:32:00,VALID,917.997,VALID,0,VALID,100,VALID,0,VALID,17.2242,VALID,137,VALID,0,
2009-07-31, 02:33:00,VALID,918.037,VALID,0,VALID,100,VALID,0,VALID,17.2406,VALID,136,VALID,0,
2009-07-31, 02:34:00,VALID,918.048,VALID,0,VALID,100,VALID,0,VALID,17.2082,VALID,136,VALID,0,
2009-07-31, 02:35:00,VALID,918.038,VALID,0,VALID,100,VALID,-0.0169808,VALID,17.2049,VALID,136,VALID,0,
2009-07-31, 02:36:00,VALID,918.044,VALID,0,VALID,100,VALID,0.0169808,VALID,17.2244,VALID,126,VALID,0,
2009-07-31, 02:37:00,VALID,918.04,VALID,0,VALID,100,VALID,0.0339617,VALID,17.2758,VALID,128,VALID,0,
2009-07-31, 02:38:00,VALID,918.019,VALID,0,VALID,100,VALID,0,VALID,17.2955,VALID,129,VALID,0,
2009-07-31, 02:39:00,VALID,917.996,VALID,0,VALID,100,VALID,0.0169808,VALID,17.2923,VALID,139,VALID,0,
2009-07-31, 02:40:00,VALID,917.975,VALID,0,VALID,100,VALID,-0.0169808,VALID,17.2635,VALID,140,VALID,0,
2009-07-31, 02:41:00,VALID,917.941,VALID,0,VALID,100,VALID,-0.0169808,VALID,17.2272,VALID,137,VALID,0,
2009-07-31, 02:42:00,VALID,917.938,VALID,0,VALID,100,VALID,-0.0679233,VALID,17.2116,VALID,144,VALID,0,
2009-07-31, 02:43:00,VALID,917.943,VALID,0,VALID,100,VALID,-0.101885,VALID,17.2158,VALID,153,VALID,0,
2009-07-31, 02:44:00,VALID,917.936,VALID,0,VALID,100,VALID,-0.0849042,VALID,17.216,VALID,147,VALID,0,
2009-07-31, 02:45:00,VALID,917.933,VALID,0,VALID,100,VALID,-0.101885,VALID,17.1903,VALID,128,VALID,0,
2009-07-31, 02:46:00,VALID,917.919,VALID,0,VALID,100,VALID,-0.101885,VALID,17.1771,VALID,115,VALID,0,
2009-07-31, 02:47:00,VALID,917.928,VALID,0,VALID,100,VALID,-0.135847,VALID,17.1769,VALID,116,VALID,0,
2009-07-31, 02:48:00,VALID,917.933,VALID,0,VALID,100,VALID,-0.0849042,VALID,17.1511,VALID,125,VALID,0,
2009-07-31, 02:49:00,VALID,917.935,VALID,0,VALID,100,VALID,-0.101885,VALID,17.1449,VALID,150,VALID,0,
2009-07-31, 02:50:00,VALID,917.936,VALID,0,VALID,100,VALID,-0.101885,VALID,17.0893,VALID,163,VALID,0,
2009-07-31, 02:51:00,VALID,917.914,VALID,0,VALID,100,VALID,-0.101885,VALID,17.0407,VALID,165,VALID,0,
2009-07-31, 02:52:00,VALID,917.889,VALID,0,VALID,100,VALID,-0.101885,VALID,17.0217,VALID,163,VALID,0,
2009-07-31, 02:53:00,VALID,917.869,VALID,0,VALID,100,VALID,-0.101885,VALID,16.9888,VALID,156,VALID,0,
2009-07-31, 02:54:00,VALID,917.853,VALID,0,VALID,100,VALID,-0.118866,VALID,17.0087,VALID,161,VALID,0,
2009-07-31, 02:55:00,VALID,917.862,VALID,0,VALID,100,VALID,-0.0849042,VALID,17.031,VALID,164,VALID,0,
2009-07-31, 02:56:00,VALID,917.864,VALID,0,VALID,100,VALID,-0.101885,VALID,17.0569,VALID,164,VALID,0,
2009-07-31, 02:57:00,VALID,917.864,VALID,0,VALID,100,VALID,-0.101885,VALID,17.0863,VALID,161,VALID,0,
2009-07-31, 02:58:00,VALID,917.885,VALID,0,VALID,100,VALID,-0.101885,VALID,17.0597,VALID,149,VALID,0,
2009-07-31, 02:59:00,VALID,917.881,VALID,0,VALID,100,VALID,-0.0679233,VALID,17.0792,VALID,135,VALID,0,
2009-07-31, 03:00:00,VALID,917.885,VALID,0,VALID,100,VALID,-0.0849042,VALID,17.0828,VALID,134,VALID,0,
2009-07-31, 03:01:00,VALID,917.893,VALID,0,VALID,100,VALID,-0.0509425,VALID,17.1317,VALID,134,VALID,0,
2009-07-31, 03:02:00,VALID,917.894,VALID,0,VALID,100,VALID,-0.0679233,VALID,17.1349,VALID,139,VALID,0,
2009-07-31, 03:03:00,VALID,917.887,VALID,0,VALID,100,VALID,-0.0849042,VALID,17.0995,VALID,154,VALID,0.0024858,
2009-07-31, 03:04:00,VALID,917.881,VALID,0,VALID,100,VALID,-0.101885,VALID,17.1217,VALID,150,VALID,0,
2009-07-31, 03:05:00,VALID,917.857,VALID,0,VALID,100,VALID,-0.101885,VALID,17.0956,VALID,139,VALID,0.0876116,
2009-07-31, 03:06:00,VALID,917.84,VALID,0,VALID,100,VALID,-0.0849042,VALID,17.0439,VALID,130,VALID,0,
2009-07-31, 03:07:00,VALID,917.812,VALID,0,VALID,100,VALID,-0.0849042,VALID,17.0374,VALID,121,VALID,0,
2009-07-31, 03:08:00,VALID,917.798,VALID,0,VALID,100,VALID,-0.101885,VALID,17.0506,VALID,120,VALID,0,
2009-07-31, 03:09:00,VALID,917.782,VALID,0,VALID,100,VALID,-0.0849042,VALID,17.0569,VALID,121,VALID,0,
2009-07-31, 03:10:00,VALID,917.778,VALID,0,VALID,100,VALID,-0.0849042,VALID,17.0377,VALID,128,VALID,0,
2009-07-31, 03:11:00,VALID,917.766,VALID,0,VALID,100,VALID,-0.0849042,VALID,17.0273,VALID,130,VALID,0,
2009-07-31, 03:12:00,VALID,917.769,VALID,0,VALID,100,VALID,-0.0339617,VALID,16.9882,VALID,120,VALID,0,
2009-07-31, 03:13:00,VALID,917.761,VALID,0,VALID,100,VALID,0.0169808,VALID,16.897,VALID,125,VALID,0,
2009-07-31, 03:14:00,VALID,917.75,VALID,0,VALID,100,VALID,0.0339617,VALID,16.8447,VALID,121,VALID,0,
2009-07-31, 03:15:00,VALID,917.742,VALID,0,VALID,100,VALID,0.0509425,VALID,16.8574,VALID,143,VALID,0,
2009-07-31, 03:16:00,VALID,917.741,VALID,0,VALID,100,VALID,0.0339617,VALID,16.8777,VALID,147,VALID,0,
2009-07-31, 03:17:00,VALID,917.732,VALID,0,VALID,100,VALID,0.0169808,VALID,16.8872,VALID,148,VALID,0,
2009-07-31, 03:18:00,VALID,917.715,VALID,0,VALID,100,VALID,0,VALID,16.9067,VALID,136,VALID,0,
2009-07-31, 03:19:00,VALID,917.696,VALID,0,VALID,100,VALID,0,VALID,16.9002,VALID,124,VALID,0,
2009-07-31, 03:20:00,VALID,917.706,VALID,0,VALID,100,VALID,0.0169808,VALID,16.8643,VALID,118,VALID,0,
2009-07-31, 03:21:00,VALID,917.716,VALID,0,VALID,100,VALID,0.0169808,VALID,16.8254,VALID,121,VALID,0,
2009-07-31, 03:22:00,VALID,917.71,VALID,0,VALID,100,VALID,0.0169808,VALID,16.7863,VALID,122,VALID,0,
2009-07-31, 03:23:00,VALID,917.717,VALID,0,VALID,100,VALID,0.0339617,VALID,16.7768,VALID,122,VALID,0,
2009-07-31, 03:24:00,VALID,917.724,VALID,0,VALID,100,VALID,-0.0509425,VALID,16.7686,VALID,122,VALID,0,
2009-07-31, 03:25:00,VALID,917.713,VALID,0,VALID,100,VALID,-0.101885,VALID,16.7426,VALID,122,VALID,0,
2009-07-31, 03:26:00,VALID,917.708,VALID,0,VALID,100,VALID,-0.0679233,VALID,16.7137,VALID,122,VALID,0,
2009-07-31, 03:27:00,VALID,917.708,VALID,0,VALID,100,VALID,0,VALID,16.6802,VALID,122,VALID,0,
2009-07-31, 03:28:00,VALID,917.702,VALID,0,VALID,100,VALID,0.0169808,VALID,16.6698,VALID,122,VALID,0,
2009-07-31, 03:29:00,VALID,917.667,VALID,0,VALID,100,VALID,0.0339617,VALID,16.6443,VALID,122,VALID,0,
2009-07-31, 03:30:00,VALID,917.639,VALID,0,VALID,100,VALID,0.0339617,VALID,16.5173,VALID,122,VALID,0,
2009-07-31, 03:31:00,VALID,917.608,VALID,0,VALID,100,VALID,0.0169808,VALID,16.4719,VALID,122,VALID,0,
2009-07-31, 03:32:00,VALID,917.593,VALID,0,VALID,100,VALID,0.0169808,VALID,16.5629,VALID,122,VALID,0,
2009-07-31, 03:33:00,VALID,917.599,VALID,0,VALID,100,VALID,0.0169808,VALID,16.6042,VALID,123,VALID,0,
2009-07-31, 03:34:00,VALID,917.593,VALID,0,VALID,100,VALID,0.0509425,VALID,16.6074,VALID,128,VALID,0,
2009-07-31, 03:35:00,VALID,917.602,VALID,0,VALID,100,VALID,0.0339617,VALID,16.5337,VALID,145,VALID,0,
2009-07-31, 03:36:00,VALID,917.593,VALID,0,VALID,100,VALID,0.0509425,VALID,16.4492,VALID,155,VALID,0,
2009-07-31, 03:37:00,VALID,917.58,VALID,0,VALID,100,VALID,0.0339617,VALID,16.4332,VALID,154,VALID,0.0706759,
2009-07-31, 03:38:00,VALID,917.54,VALID,0,VALID,100,VALID,0.0509425,VALID,16.4358,VALID,157,VALID,0.114462,
2009-07-31, 03:39:00,VALID,917.515,VALID,0,VALID,100,VALID,0.0679233,VALID,16.5144,VALID,158,VALID,0,
2009-07-31, 03:40:00,VALID,917.491,VALID,0,VALID,100,VALID,0.0339617,VALID,16.5523,VALID,148,VALID,0,
2009-07-31, 03:41:00,VALID,917.497,VALID,0,VALID,100,VALID,0.0169808,VALID,16.5754,VALID,146,VALID,0,
2009-07-31, 03:42:00,VALID,917.528,VALID,0,VALID,100,VALID,-0.0339617,VALID,16.5765,VALID,148,VALID,0,
2009-07-31, 03:43:00,VALID,917.544,VALID,0,VALID,100,VALID,-0.0849042,VALID,16.6352,VALID,156,VALID,0,
2009-07-31, 03:44:00,VALID,917.548,VALID,0,VALID,100,VALID,-0.0679233,VALID,16.6419,VALID,148,VALID,0.092152,
2009-07-31, 03:45:00,VALID,917.522,VALID,0,VALID,100,VALID,-0.0679233,VALID,16.6387,VALID,145,VALID,0.0851753,
2009-07-31, 03:46:00,VALID,917.505,VALID,0,VALID,100,VALID,-0.101885,VALID,16.6253,VALID,146,VALID,0.00933689,
2009-07-31, 03:47:00,VALID,917.498,VALID,0,VALID,100,VALID,-0.0849042,VALID,16.619,VALID,139,VALID,0.0194404,
2009-07-31, 03:48:00,VALID,917.528,VALID,0,VALID,100,VALID,-0.0339617,VALID,16.6287,VALID,149,VALID,0.00400152,
2009-07-31, 03:49:00,VALID,917.56,VALID,0,VALID,100,VALID,-0.0679233,VALID,16.6097,VALID,167,VALID,0.00762195,
2009-07-31, 03:50:00,VALID,917.606,VALID,0,VALID,100,VALID,-0.0849042,VALID,16.5931,VALID,182,VALID,0,